www.pogodaiklimat.ru

Погода и климат >> Архив погоды >> Индонезия >> Гунунгситоли


ПОГОДА в Гунунгситоли

  • Прогноз погоды в Гунунгситоли
  • Монитор погоды в Гунунгситоли

АРХИВ ПОГОДЫ в Гунунгситоли

Время (UTC), дата Ветер
(напр.,м/с)
 
Видим.   Явления Облачность Т
(С)
Тd
(С)
f
(%)
Тe
(С)
Тes
(С)
Комфортность P
(гПа)
Po
(гПа)
Тmin
(С)
Tmax
(С)
R
(мм)
R24
(мм)
S
(см)
21 9.01 Ю 2 6000 м в посл. час гроза 9/5 450 м
[Cb cap Ac As Ci fib]
+24.2 +24.0 99 +33 +33 очень
душно
1010.0 1009.0
00 10.01 Ю 3 8000 м в посл. час гроза 8/4 480 м
[Cu Sc Ac As Ci fib]
+24.4 +23.3 94 +33 +33 очень
душно
1009.8 1008.9 +23.6 0.4
03 10.01 ЮВ 2 10 км 8/4 480 м
[Cu Sc Ac As Ci fib]
+28.2 +24.6 81 +40 +45 очень
душно
1010.5 1009.7
06 10.01 СВ 2 10 км 8/4 480 м
[Cu Sc Ac As Ci fib]
+30.4 +25.6 76 +45 +52 опасность
перегрева
1009.7 1008.9
09 10.01 ЮВ 4 10 км 5/3 300 м
[Cu Sc As op Ci fib]
+32.9 +24.4 61 +45 +48 опасность
перегрева
1006.5 1005.5
12 10.01 штиль 0 6000 м 5/3 480 м
[Cu Sc As op Ci fib]
+28.3 +25.7 86 +42 +42 опасность
перегрева
1008.5 1007.5 +33.2
15 10.01 штиль 0 6000 м гроза без осадков 6/4 450 м
[Cb cap Ac As Ci fib]
+26.1 +25.0 94 +37 +37 очень
душно
1010.7 1009.7
18 10.01 штиль 0 6000 м гроза без осадков 8/4 450 м
[Cb cap Ac As Ci fib]
+26.0 +24.5 91 +36 +36 очень
душно
1010.3 1009.2
21 10.01 штиль 0 3000 м гроза, ливневой дождь 10/5 450 м
[Cb cap Ac As]
+24.4 +23.4 94 +33 +33 очень
душно
1009.4 1008.3 4
00 11.01 Ю 2 6000 м гроза без осадков 10/5 300 м
[Cb cap Ac As Ci fib]
+23.3 +23.2 99 +33 +33 очень
душно
1010.5 1009.7 +23.3 1
03 11.01 штиль 0 9000 м {гроза, дождь} 9/5 450 м
[Cu Sc Ac As Ci fib]
+28.4 +24.5 79 +40 +45 очень
душно
1011.3 1010.5 0.0
06 11.01 СВ 3 10 км {гроза, дождь} 9/5 480 м
[Cu Sc Ac As Ci fib]
+30.8 +24.8 70 +44 +49 опасность
перегрева
1009.5 1008.5 0.0
09 11.01 СВ 3 8000 м 6/3 480 м
[Cu med, cong Ac As Ci fib]
+30.8 +23.7 66 +42 +45 опасность
перегрева
1006.8 1005.9
12 11.01 штиль 0 6000 м 5/1 480 м
[Cu med, cong Ac As Ci fib]
+27.4 +25.0 87 +39 +39 очень
душно
1008.0 1007.0 +31.9
15 11.01 штиль 0 5000 м 5/1 500 м
[Sc Ac As Ci fib]
+26.0 +24.5 91 +36 +36 очень
душно
1010.7 1009.7
18 11.01 ЮВ 2 6000 м гроза без осадков 8/5 450 м
[Cb cap Ac As Ci fib]
+25.7 +24.5 93 +36 +36 очень
душно
1010.0 1009.0
21 11.01 СВ 4 5000 м гроза с градом {снег} 8/4 450 м
[Cb cap Ac As Ci fib]
+25.3 +24.3 94 +35 +35 очень
душно
1008.4 1007.4 0.9
00 12.01 штиль 0 5000 м дождь {гроза} 10/5 450 м
[Cb cap As op]
+24.4 +23.9 97 +33 +33 очень
душно
1010.4 1009.4 +24.1 5
03 12.01 штиль 0 6000 м {дождь} 9/4 450 м
[Cb cap Ac As Ci fib]
+25.8 +24.4 92 +36 +42 очень
душно
1012.6 1011.6 0.0
06 12.01 штиль 0 7000 м {дождь} 9/3 540 м
[Sc Ac As Ci fib]
+28.6 +24.8 80 +41 +51 опасность
перегрева
1010.5 1009.6 0.0
09 12.01 СВ 2 10 км 8/3 500 м
[Sc Ac As Ci fib]
+29.2 +24.6 76 +41 +44 опасность
перегрева
1007.2 1006.2
12 12.01 штиль 0 6000 м 6/3 500 м
[Sc Ac As Ci fib]
+27.4 +25.6 90 +40 +40 очень
душно
1009.2 1008.2 +30.2
15 12.01 штиль 0 6000 м 6/3 500 м
[Sc Ac As Ci fib]
+26.4 +24.6 90 +37 +37 очень
душно
1010.7 1009.7
18 12.01 штиль 0 6000 м 6/3 500 м
[Sc Ac As Ci fib]
+25.6 +24.4 93 +36 +36 очень
душно
1010.3 1009.3
21 12.01 штиль 0 5000 м гроза без осадков 8/3 450 м
[Cb cap Ac As Ci fib]
+25.6 +24.8 95 +36 +36 очень
душно
1009.2 1008.2
00 13.01 штиль 0 7000 м в посл. час дождь {гроза} 8/5 300 м
[Cb cap Ac As Ci fib]
+23.4 +23.3 99 +33 +33 очень
душно
1010.5 1009.7 +23.4 4
03 13.01 штиль 0 10 км 8/4 500 м
[Sc Ac As Ci fib]
+27.8 +24.3 81 +39 +45 очень
душно
1011.8 1011.0
06 13.01 СВ 3 10 км 6/4 480 м
[Cu Sc Ac As Ci fib]
+29.1 +24.8 78 +42 +49 опасность
перегрева
1010.2 1009.3
09 13.01 ЮЗ 2 8000 м в посл. час гроза 8/4 450 м
[Cb cap Ac As Ci fib]
+27.8 +24.7 83 +39 +42 очень
душно
1008.0 1007.0
12 13.01 штиль 0 6000 м {гроза} 8/4 480 м
[Cu Sc Ac As Ci fib]
+27.0 +24.9 88 +39 +39 очень
душно
1009.5 1008.5 +30.6
15 13.01 штиль 0 5000 м зарница 8/4 450 м
[Cb cap Ac As Ci fib]
+24.9 +23.9 94 +34 +34 очень
душно
1010.5 1009.5
18 13.01 штиль 0 5000 м 8/4 450 м
[Cb cap Ac As Ci fib]
+24.2 +23.5 96 +33 +33 очень
душно
1010.5 1009.6
21 13.01 штиль 0 5000 м 6/4 450 м
[Cb cap Ac As Ci fib]
+24.2 +23.5 96 +33 +33 очень
душно
1008.8 1007.9
00 14.01 штиль 0 7000 м 6/4 300 м
[Cb cap Ac As Ci fib]
+23.7 +23.2 97 +32 +32 очень
душно
1009.8 1008.8 +23.4
03 14.01 штиль 0 9000 м 9/4 450 м
[Cb cap Ac As Ci fib]
+27.8 +24.9 84 +40 +45 очень
душно
1011.2 1010.2
06 14.01 штиль 0 3000 м гроза, ливневой дождь 10/6 450 м
[Cb cap Ac As]
+24.7 +23.7 94 +34 +37 очень
душно
1010.4 1009.4 20
09 14.01 ЮЗ 3 6000 м слаб. дождь {гроза} 10/6 450 м
[Cb cap Ac As Ci fib]
+24.5 +23.7 95 +33 +34 очень
душно
1007.9 1007.1 2
12 14.01 ЮЗ 5 6000 м слаб. дождь {гроза} 9/5 450 м
[Cb cap Ac As Ci fib]
+25.2 +23.7 91 +34 +34 очень
душно
1009.5 1008.7 +29.1 0.0
15 14.01 штиль 0 6000 м {дождь} 9/5 450 м
[Cb cap Ac As Ci fib]
+24.4 +23.3 94 +33 +33 очень
душно
1011.6 1010.7 0.0
18 14.01 штиль 0 6000 м {дождь} 9/6 450 м
[Cb cap Ac As Ci fib]
+24.0 +23.8 99 +33 +33 очень
душно
1011.3 1010.3 0.0
21 14.01 штиль 0 6000 м 8/5 450 м
[Cb cap Ac As Ci fib]
+24.0 +23.6 98 +33 +33 очень
душно
1009.0 1008.0
00 15.01 штиль 0 10 км 5/3 480 м
[Cu med, cong Ac As Ci fib]
+22.8 +22.4 98 +31 +31 очень
душно
1009.7 1008.7 +22.8 22
03 15.01 штиль 0 50 км ?/? +28.8 +25.0 80 +42 +42 опасность
перегрева
1011.9 1010.9
06 15.01 штиль 0 5000 м гроза, ливневой дождь 10/6 450 м
[Cb cap As op]
+26.6 +24.8 90 +38 +40 очень
душно
1010.3 1009.3 9
09 15.01 штиль 0 7000 м в посл. час дождь {гроза} 9/5 450 м
[Cb cap Ac As Ci fib]
+27.4 +25.3 88 +40 +43 очень
душно
1008.1 1007.3 1
12 15.01 штиль 0 7000 м {гроза, дождь} 8/5 450 м
[Cb cap Ac As Ci fib]
+25.8 +24.7 94 +37 +37 очень
душно
1009.8 1008.9 +29.5 1
15 15.01 штиль 0 6000 м 8/5 480 м
[Cu Sc Ac As Ci fib]
+24.8 +24.4 98 +35 +35 очень
душно
1012.0 1011.1
18 15.01 штиль 0 5000 м 6/4 450 м
[Cb cap Ac As Ci fib]
+24.2 +23.8 98 +33 +33 очень
душно
1011.1 1010.2
21 15.01 штиль 0 5000 м в посл. час дождь 6/4 450 м
[Cb cap Ac As Ci fib]
+23.5 +23.1 98 +31 +31 очень
душно
1011.6 1010.7 15
00 16.01 штиль 0 6000 м в посл. час дождь 10/6 300 м
[Cb cap As op]
+23.8 +23.3 97 +32 +32 очень
душно
1011.1 1010.1 +22.8 26
03 16.01 штиль 0 7000 м в посл. час дождь 9/6 450 м
[Cb cap As op Ci fib]
+25.4 +24.0 92 +35 +39 очень
душно
1011.6 1010.6 0.0
06 16.01 штиль 0 8000 м {дождь} 9/5 480 м
[Cu Sc As op Ci fib]
+27.8 +24.3 81 +39 +46 очень
душно
1009.2 1008.2 0.0
09 16.01 С 2 8000 м 8/5 450 м
[Cb cap Ac As Ci fib]
+28.4 +24.8 81 +41 +43 опасность
перегрева
1009.1 1008.1
12 16.01 штиль 0 6000 м 8/5 450 м
[Cb cap Ac As Ci fib]
+26.9 +24.7 88 +38 +38 очень
душно
1008.1 1007.1 +29.4
15 16.01 штиль 0 6000 м 8/5 450 м
[Cb cap Ac As Ci fib]
+24.4 +23.7 96 +33 +33 очень
душно
1011.0 1010.0
18 16.01 штиль 0 6000 м 6/3 500 м
[Sc Ac As Ci fib]
+23.6 +23.1 97 +31 +31 очень
душно
1010.6 1009.6

 

Местоположение метеостанции Гунунгситоли (Индонезия): широта 1.50 долгота 97.63 высота над уровнем моря 6 м.

В архиве по умолчанию представлена погода в Гунунгситоли за последнюю неделю. Архивные данные за месяц целиком и за предыдущие месяцы, начиная с января 2011 года, Вы можете получить, выбрав интересующий диапазон дат из раскрывающегося списка и нажав кнопку "Ввод!".


*Определитесь, кто Вы:
робот инопланетянин человек

Внимание! Время в таблицах - всемирное. Для получения местного времени необходимо прибавить поправку, которая равна 7 ч.

Смотрите также архив погоды в соседних городах и на ближайших метеорологических станциях:

Погода в Сиболге (Индонезия) (139 км)
Погода в Медан Полония (Индонезия) (258 км)
Погода в Белаване (Индонезия) (282 км)
Погода в Меулабохе (Индонезия) (349 км)
Погода в Паданге (Индонезия) (402 км)
Погода в Лхоксёмаве (Индонезия) (418 км)
Погода в Пеканбару (Индонезия) (440 км)
Погода в Ситаване (Малайзия) (456 км)
Погода в Куала-Лумпуре (Малайзия) (471 км)
Погода в Куала-Лумпур аэропорту (Малайзия) (472 км)

Пояснения к столбцам:

Ветер - указаны скорость ветра в м/с - средняя за 10 мин, порывы в срок и между сроками (в фигурных скобках) и направление, откуда дует ветер: С - северный, СВ - северо-восточный, В - восточный, ЮВ - юго-восточный, Ю - южный, ЮЗ - юго-западный, З - западный, СЗ - северо-западный.
Видимость - горизонтальная дальность видимости в метрах или километрах. При видимости от 1 до 10 км при отсутствии осадков обычно наблюдается дымка, при ухудшении видимости до 1 км и менее - туман. В сухую погоду видимость может ухудшаться дымом, пылью или мглою.
Явления - указаны атмосферные явления, наблюдавшиеся в срок или в последний час перед сроком; фигурными скобками обозначены явления, наблюдавшиеся между сроками (за 1-3 часа до срока); квадратными скобками обозначены град или гололедные отложения с указанием их диаметра в мм.
Облачность - указаны через наклонную черту общая и нижняя облачность в баллах и высота нижней границы облаков в метрах; квадратными скобками обозначены формы облаков: Ci - перистые, Cs - перисто-слоистые, Cc - перисто-кучевые, Ac - высококучевые, As - высокослоистые, Sc - слоисто-кучевые, Ns - слоисто-дождевые, Cu - кучевые, Cb - кучево-дождевые. Подробнее классификацию облаков см. в Атласе облаков (PDF).
T - Температура воздуха - температура, измеренная на высоте 2 м над землей.
Td - Температура точки росы - температура, при понижении до которой содержащийся в воздухе водяной пар достигнет насыщения.
f - Относительная влажность воздуха - влажноcть воздуха, измеренная на высоте 2 м над землей.
Te - Эффективная температура - температура, которую ощущает одетый по сезону человек в тени. Характеристика душности погоды. При расчете учитывается влияние влажности воздуха и скорости ветра на теплоощущения человека.
Tes - Эффективная температура на солнце - температура, которую ощущает человек, с поправкой на солнечный нагрев. Характеристика знойности погоды. Зависит от высоты солнца над горизонтом, облачности и скорости ветра. Ночью, в пасмурную погоду, а также при ветре 12 м/с и более поправка равна нулю.
P - Атмосферное давление - приведенное к уровню моря атмосферное давление.
Po - Атмосферное давление - измеренное на уровне метеостанции атмосферное давление.
Tmin - Минимальная температура - минимум температуры воздуха на высоте 2 м над землей.
Tmax - Максимальная температура - максимум температуры воздуха на высоте 2 м над землей.
R - Количество осадков - Количество выпавших осадков за период времени, мм. При наведении курсора мыши на число - период времени, за который выпало указанное количество осадков.
R24 - Количество осадков - Количество выпавших осадков за 24 часа, мм.
S - Снежный покров - Высота снежного покрова, см. При наведении курсора мыши на число - состояние снежного покрова и степень покрытия местности в баллах.